Content
SEND FEEDBACK

Daily
Averages
Monthly
Summary
United Kingdom

LONDON, ENGLAND


Home > Europe > United Kingdom > England
Elevation: 203 feet     Latitude: 51 09N     Longitude: 000 11W

WEATHER
 
SELECT A DAY
Number of Records: 299,432;   Date Range: 7/1/96 - 12/18/14
 
SHARE

PRINT THIS DATA

[ ← Previous Day ]
WEATHER ALMANAC - OCTOBER 25, 2013
[ Next Day → ]
[ °C ]   °F
Weather ElementAverageHighLow
Temperature60.2 °F62.6 °F (10:50 am)55.4 °F (12:50 am)
Dewpoint56.4 °F59 °F (8:20 am)53.6 °F (12:50 am)
Humidity87.4 %100 % (6:50 am)77 % (5:20 pm)
Barometer29.69 in29.80 in (12:50 am)29.62 in (5:20 am)
Wind Speed10.9 mph15 mph (1:50 pm)
Wind Gust24.2 mph (2:50 pm)
Weather ElementAverage
Visibility5.7 mi
Wind DirectionS (183.4 °)

Weather ElementTotal
Precipitation---
Heating Degree Days6 (Base 65)
Growing Degree Days9 (Base 50)
Averaged from 47 records on October 25, 2013
WEATHER CONDITIONS BREAKOUT
WIND DIRECTION BREAKOUT
WEATHER BY HOUR - OCTOBER 25, 2013
[ °C ]   °F
Local TimeTemperatureDewpointHumidityBarometerVisibilityWind DirectionWind SpeedGust SpeedPrecipitationEventsConditions
12:50 AM55.4 °F53.6 °F94 %29.80 in6.2 miEast (90°)9.2 mphPartly Cloudy
1:20 AM57.2 °F53.6 °F88 %29.77 in6.2 miEast (100°)8.1 mphMostly Cloudy
1:50 AM57.2 °F53.6 °F88 %29.77 in6.2 miEast (90°)8.1 mphMostly Cloudy
2:20 AM57.2 °F53.6 °F88 %29.74 in6.2 miEast (100°)8.1 mphMostly Cloudy
2:50 AM57.2 °F55.4 °F94 %29.71 in6.2 miESE (110°)8.1 mphRainLight Rain
3:20 AM57.2 °F55.4 °F94 %29.68 in6.2 miESE (120°)9.2 mphRainLight Rain
3:50 AM57.2 °F55.4 °F94 %29.68 in6.2 miSE (130°)9.2 mphRainLight Rain
4:20 AM57.2 °F55.4 °F94 %29.65 in3.7 miSE (130°)10.4 mphRainLight Rain
4:50 AM57.2 °F55.4 °F94 %29.65 in3.7 miESE (120°)11.5 mphRainRain
5:20 AM57.2 °F55.4 °F94 %29.62 in3.7 miSE (130°)10.4 mphRainRain
5:50 AM57.2 °F55.4 °F94 %29.62 in3.1 miSE (140°)10.4 mphRainRain
6:20 AM57.2 °F55.4 °F94 %29.62 in3.7 miSSE (150°)10.4 mphRainLight Rain
6:50 AM57.2 °F57.2 °F100 %29.62 in4.3 miSouth (190°)9.2 mphRainLight Rain
7:20 AM59.0 °F57.2 °F94 %29.62 in4.3 miSouth (180°)8.1 mphDrizzle
7:50 AM59.0 °F57.2 °F94 %29.62 in5.6 miSouth (190°)9.2 mphMostly Cloudy
8:20 AM60.8 °F59.0 °F94 %29.62 in6.2 miSSW (200°)8.1 mphMostly Cloudy
8:50 AM60.8 °F59.0 °F94 %29.65 in6.2 miSouth (190°)9.2 mphMostly Cloudy
9:20 AM60.8 °F59.0 °F94 %29.65 in6.2 miSSW (200°)10.4 mphMostly Cloudy
9:50 AM60.8 °F59.0 °F94 %29.68 in6.2 miSSW (200°)9.2 mphMostly Cloudy
10:20 AM60.8 °F59.0 °F94 %29.68 in6.2 miSSW (210°)10.4 mphMostly Cloudy
10:50 AM62.6 °F59.0 °F88 %29.68 in6.2 miSW (220°)11.5 mphMostly Cloudy
11:20 AM62.6 °F59.0 °F88 %29.68 in6.2 miSSW (210°)11.5 mphMostly Cloudy
11:50 AM62.6 °F59.0 °F88 %29.71 in6.2 miSSW (210°)11.5 mphScattered Clouds
12:20 PM62.6 °F57.2 °F82 %29.71 in6.2 miSSW (210°)11.5 mphScattered Clouds
12:50 PM62.6 °F57.2 °F82 %29.71 in6.2 miSSW (210°)11.5 mphScattered Clouds
1:20 PM62.6 °F57.2 °F82 %29.71 in6.2 miSW (220°)12.7 mphMostly Cloudy
1:50 PM62.6 °F57.2 °F82 %29.71 in6.2 miSSW (210°)15.0 mphMostly Cloudy
2:20 PM62.6 °F57.2 °F82 %29.71 in3.7 miSSW (210°)11.5 mphMostly Cloudy
2:50 PM62.6 °F57.2 °F82 %29.68 in3.7 miSSW (210°)11.5 mph24.2 mphScattered Clouds
3:20 PM62.6 °F57.2 °F82 %29.68 in6.2 miSSW (210°)12.7 mphScattered Clouds
3:50 PM62.6 °F57.2 °F82 %29.71 in6.2 miSSW (210°)11.5 mphPartly Cloudy
4:20 PM62.6 °F57.2 °F82 %29.71 in6.2 miSSW (210°)11.5 mphPartly Cloudy
4:50 PM62.6 °F57.2 °F82 %29.68 in6.2 miSSW (210°)12.7 mphPartly Cloudy
5:20 PM62.6 °F55.4 °F77 %29.68 in6.2 miSSW (200°)10.4 mphPartly Cloudy
5:50 PM60.8 °F57.2 °F88 %29.71 in6.2 miSSW (200°)9.2 mphPartly Cloudy
6:20 PM60.8 °F57.2 °F88 %29.71 in6.2 miSSW (200°)10.4 mphScattered Clouds
6:50 PM60.8 °F55.4 °F82 %29.71 in6.2 miSSW (200°)11.5 mphPartly Cloudy
7:20 PM60.8 °F55.4 °F82 %29.71 in6.2 miSSW (210°)12.7 mphPartly Cloudy
7:50 PM60.8 °F55.4 °F82 %29.71 inSSW (210°)12.7 mphClear
8:20 PM60.8 °F55.4 °F82 %29.71 inSSW (210°)12.7 mphClear
8:50 PM60.8 °F55.4 °F82 %29.71 inSSW (210°)13.8 mphClear
9:20 PM60.8 °F55.4 °F82 %29.71 in6.2 miSSW (210°)15.0 mphPartly Cloudy
9:50 PM60.8 °F55.4 °F82 %29.71 in6.2 miSSW (210°)15.0 mphPartly Cloudy
10:20 PM60.8 °F55.4 °F82 %29.71 in6.2 miSSW (210°)12.7 mphScattered Clouds
10:50 PM60.8 °F55.4 °F82 %29.71 in6.2 miSSW (210°)11.5 mphMostly Cloudy
11:20 PM60.8 °F55.4 °F82 %29.74 in6.2 miSSW (210°)11.5 mphMostly Cloudy
11:50 PM60.8 °F55.4 °F82 %29.74 in6.2 miSSW (210°)11.5 mphScattered Clouds
Hourly data recorded from EGKK, located miles away from London, England







STORIES FROM OUR PARTNERS